When you browse on this site, cookies collect data to enhance your experience and personalize the content and advertising you see.
Visit our Privacy Policy to learn more. By continuing to use the site, you agree to this use of cookies and data.
  • In Latvia
  • List of Countries
  • For 7 days
  • Water Temperature
  • Weather Map
  • Weather Widgets
  • user-avatar
    Login

    Hourly Weather Kerewan

    Today, 27 May, Wednesday

    Time Temperature Precipitation Wind Pressure Humidity
    00:00 +26°C° 0 mm 3 mps 757 mmHg 73%
    01:00 +26°C° 0 mm 3 mps 757 mmHg 72%
    02:00 +26°C° 0 mm 4 mps 757 mmHg 70%
    03:00 +26°C° 0 mm 3 mps 757 mmHg 71%
    04:00 +26°C° 0 mm 3 mps 757 mmHg 72%
    05:00 +26°C° 0 mm 3 mps 757 mmHg 75%
    06:00 +27°C° 0 mm 2 mps 757 mmHg 67%
    07:00 +28°C° 0 mm 2 mps 757 mmHg 59%
    08:00 +29°C° 0 mm 1 mps 758 mmHg 51%
    09:00 +33°C° 0 mm 1 mps 757 mmHg 41%
    10:00 +36°C° 0 mm 1 mps 757 mmHg 31%
    11:00 +40°C° 0 mm 1 mps 757 mmHg 21%
    12:00 +41°C° 0 mm 1 mps 757 mmHg 18%
    13:00 +43°C° 0 mm 1 mps 756 mmHg 15%
    14:00 +44°C° 0 mm 1 mps 755 mmHg 13%
    15:00 +43°C° 0 mm 3 mps 755 mmHg 18%
    16:00 +41°C° 0 mm 4 mps 755 mmHg 23%
    17:00 +39°C° 0 mm 5 mps 755 mmHg 29%
    18:00 +35°C° 0 mm 5 mps 756 mmHg 40%
    19:00 +32°C° 0 mm 4 mps 756 mmHg 52%
    20:00 +28°C° 0 mm 4 mps 757 mmHg 64%
    21:00 +27°C° 0 mm 4 mps 758 mmHg 68%
    22:00 +27°C° 0 mm 3 mps 758 mmHg 71%
    23:00 +27°C° 0 mm 3 mps 758 mmHg 75%

    Tomorrow, 28 May, Thursday

    Time Temperature Precipitation Wind Pressure Humidity
    00:00 +26°C° 0 mm 3 mps 758 mmHg 77%
    01:00 +26°C° 0 mm 3 mps 758 mmHg 79%
    02:00 +25°C° 0 mm 3 mps 757 mmHg 81%
    03:00 +25°C° 0 mm 3 mps 757 mmHg 83%
    04:00 +25°C° 0 mm 2 mps 757 mmHg 85%
    05:00 +24°C° 0 mm 2 mps 757 mmHg 86%
    06:00 +26°C° 0 mm 2 mps 757 mmHg 77%
    07:00 +28°C° 0 mm 3 mps 758 mmHg 67%
    08:00 +29°C° 0 mm 3 mps 758 mmHg 57%
    09:00 +33°C° 0 mm 3 mps 758 mmHg 47%
    10:00 +36°C° 0 mm 4 mps 758 mmHg 36%
    11:00 +40°C° 0 mm 4 mps 757 mmHg 26%
    12:00 +41°C° 0 mm 4 mps 757 mmHg 24%
    13:00 +41°C° 0 mm 5 mps 756 mmHg 22%
    14:00 +42°C° 0 mm 6 mps 756 mmHg 21%
    15:00 +40°C° 0 mm 6 mps 755 mmHg 25%
    16:00 +38°C° 0 mm 6 mps 755 mmHg 30%
    17:00 +35°C° 0 mm 7 mps 755 mmHg 34%
    18:00 +33°C° 0 mm 6 mps 755 mmHg 44%
    19:00 +29°C° 0 mm 5 mps 756 mmHg 54%
    20:00 +27°C° 0 mm 5 mps 757 mmHg 64%
    21:00 +26°C° 0 mm 4 mps 757 mmHg 69%
    22:00 +26°C° 0 mm 3 mps 757 mmHg 74%
    23:00 +25°C° 0 mm 3 mps 757 mmHg 79%

    Day after tomorrow, 29 May, Friday

    Time Temperature Precipitation Wind Pressure Humidity
    00:00 +25°C° 0 mm 2 mps 757 mmHg 80%
    01:00 +24°C° 0 mm 2 mps 757 mmHg 82%
    02:00 +24°C° 0 mm 2 mps 757 mmHg 84%
    03:00 +24°C° 0 mm 2 mps 757 mmHg 85%
    04:00 +24°C° 0 mm 2 mps 757 mmHg 85%
    05:00 +24°C° 0 mm 2 mps 757 mmHg 86%
    06:00 +25°C° 0 mm 2 mps 757 mmHg 75%
    07:00 +27°C° 0 mm 2 mps 757 mmHg 65%
    08:00 +29°C° 0 mm 2 mps 758 mmHg 54%
    09:00 +32°C° 0 mm 2 mps 757 mmHg 44%
    10:00 +36°C° 0 mm 3 mps 757 mmHg 34%
    11:00 +38°C° 0 mm 3 mps 757 mmHg 24%
    12:00 +39°C° 0 mm 3 mps 756 mmHg 22%
    13:00 +41°C° 0 mm 4 mps 755 mmHg 21%
    14:00 +42°C° 0 mm 4 mps 754 mmHg 20%
    15:00 +40°C° 0 mm 5 mps 754 mmHg 25%
    16:00 +38°C° 0 mm 6 mps 754 mmHg 30%
    17:00 +35°C° 0 mm 7 mps 753 mmHg 35%
    18:00 +33°C° 0 mm 6 mps 754 mmHg 45%
    19:00 +29°C° 0 mm 5 mps 755 mmHg 55%
    20:00 +27°C° 0 mm 5 mps 755 mmHg 65%
    21:00 +26°C° 0 mm 4 mps 755 mmHg 69%
    22:00 +26°C° 0 mm 3 mps 756 mmHg 72%
    23:00 +25°C° 0 mm 3 mps 756 mmHg 76%

    30 May, Saturday

    Time Temperature Precipitation Wind Pressure Humidity
    00:00 +25°C° 0 mm 2 mps 756 mmHg 78%
    01:00 +24°C° 0 mm 2 mps 756 mmHg 81%
    02:00 +24°C° 0 mm 1 mps 755 mmHg 84%
    03:00 +24°C° 0 mm 1 mps 755 mmHg 84%
    04:00 +23°C° 0 mm 1 mps 756 mmHg 85%
    05:00 +23°C° 0 mm 2 mps 756 mmHg 86%
    06:00 +25°C° 0 mm 2 mps 756 mmHg 75%
    07:00 +27°C° 0 mm 2 mps 757 mmHg 63%
    08:00 +29°C° 0 mm 2 mps 757 mmHg 51%
    09:00 +32°C° 0 mm 2 mps 757 mmHg 41%
    10:00 +37°C° 0 mm 2 mps 757 mmHg 31%
    11:00 +40°C° 0 mm 2 mps 756 mmHg 20%
    12:00 +41°C° 0 mm 2 mps 756 mmHg 19%
    13:00 +42°C° 0 mm 2 mps 755 mmHg 18%
    14:00 +44°C° 0 mm 3 mps 754 mmHg 16%
    15:00 +42°C° 0 mm 4 mps 754 mmHg 21%
    16:00 +39°C° 0 mm 5 mps 753 mmHg 26%
    17:00 +36°C° 0 mm 7 mps 753 mmHg 30%
    18:00 +34°C° 0 mm 6 mps 754 mmHg 39%
    19:00 +30°C° 0 mm 5 mps 755 mmHg 48%
    20:00 +28°C° 0 mm 4 mps 755 mmHg 57%
    21:00 +27°C° 0 mm 4 mps 756 mmHg 61%
    22:00 +27°C° 0 mm 3 mps 756 mmHg 66%
    23:00 +26°C° 0 mm 2 mps 757 mmHg 70%

    31 May, Sunday

    Time Temperature Precipitation Wind Pressure Humidity
    00:00 +26°C° 0 mm 2 mps 757 mmHg 71%
    01:00 +26°C° 0 mm 2 mps 757 mmHg 71%
    02:00 +26°C° 0 mm 2 mps 756 mmHg 71%
    03:00 +26°C° 0 mm 2 mps 757 mmHg 72%
    04:00 +25°C° 0 mm 1 mps 757 mmHg 73%
    05:00 +23°C° 0 mm 0 mps 757 mmHg 74%
    06:00 +25°C° 0 mm 0 mps 757 mmHg 65%
    07:00 +26°C° 0 mm 0 mps 758 mmHg 57%
    08:00 +30°C° 0 mm 1 mps 758 mmHg 49%
    09:00 +32°C° 0 mm 1 mps 758 mmHg 43%
    10:00 +36°C° 0 mm 2 mps 758 mmHg 38%
    11:00 +38°C° 0 mm 2 mps 758 mmHg 32%
    12:00 +38°C° 0 mm 3 mps 757 mmHg 32%
    13:00 +37°C° 0 mm 3 mps 757 mmHg 32%
    14:00 +37°C° 0 mm 3 mps 756 mmHg 33%
    15:00 +35°C° 0 mm 4 mps 756 mmHg 35%
    16:00 +34°C° 0 mm 5 mps 756 mmHg 38%
    17:00 +33°C° 0 mm 6 mps 756 mmHg 41%
    18:00 +32°C° 0 mm 5 mps 756 mmHg 42%
    19:00 +30°C° 0 mm 5 mps 757 mmHg 44%
    20:00 +29°C° 0 mm 4 mps 757 mmHg 45%
    21:00 +29°C° 0 mm 4 mps 757 mmHg 47%
    22:00 +28°C° 0 mm 3 mps 758 mmHg 50%
    23:00 +28°C° 0 mm 3 mps 758 mmHg 52%

    1 June, Monday

    Time Temperature Precipitation Wind Pressure Humidity
    00:00 +28°C° 0 mm 3 mps 758 mmHg 55%
    01:00 +27°C° 0 mm 3 mps 758 mmHg 59%
    02:00 +27°C° 0 mm 3 mps 757 mmHg 62%
    03:00 +27°C° 0 mm 3 mps 757 mmHg 60%
    04:00 +27°C° 0 mm 2 mps 758 mmHg 59%
    05:00 +27°C° 0 mm 2 mps 758 mmHg 58%
    06:00 +28°C° 0 mm 2 mps 758 mmHg 55%
    07:00 +28°C° 0 mm 2 mps 759 mmHg 52%
    08:00 +29°C° 0 mm 2 mps 760 mmHg 49%
    09:00 +30°C° 0 mm 2 mps 759 mmHg 44%
    10:00 +31°C° 0 mm 2 mps 759 mmHg 39%
    11:00 +32°C° 0 mm 2 mps 759 mmHg 34%
    12:00 +34°C° 0 mm 2 mps 759 mmHg 31%
    13:00 +35°C° 0 mm 2 mps 758 mmHg 28%
    14:00 +35°C° 0 mm 2 mps 757 mmHg 25%
    15:00 +35°C° 0 mm 3 mps 757 mmHg 28%
    16:00 +34°C° 0 mm 4 mps 757 mmHg 30%
    17:00 +34°C° 0 mm 4 mps 756 mmHg 32%
    18:00 +32°C° 0 mm 4 mps 757 mmHg 36%
    19:00 +30°C° 0 mm 4 mps 757 mmHg 39%
    20:00 +29°C° 0 mm 4 mps 758 mmHg 43%
    21:00 +28°C° 0 mm 4 mps 758 mmHg 44%
    22:00 +28°C° 0 mm 4 mps 758 mmHg 46%
    23:00 +27°C° 0 mm 4 mps 758 mmHg 47%
    Show more